| time (UTC) | temp F | wind direction | speed MPH | gust MPH | rain 1hr in | rain 24hr in | rain mn in | humidity % | barometer mb |
| 20260505171108 | 53 | 77 | 1.0 | 2.0 | 0.01 | 0.10 | 0.06 | 80 | 1006.7 |
| 20260505171002 | 53 | 77 | 1.0 | 2.0 | 0.01 | 0.10 | 0.06 | 80 | 1006.7 |
| 20260505170608 | 53 | 77 | 1.0 | 2.0 | 0.00 | 0.09 | 0.05 | 79 | 1006.9 |
| 20260505170502 | 53 | 77 | 1.0 | 2.0 | 0.00 | 0.09 | 0.05 | 78 | 1007.0 |
| 20260505170108 | 53 | 77 | 1.0 | 3.0 | 0.00 | 0.09 | 0.05 | 79 | 1006.9 |
| 20260505170001 | 53 | 77 | 1.0 | 3.0 | 0.00 | 0.09 | 0.05 | 78 | 1006.9 |
| 20260505165608 | 53 | 77 | 2.0 | 3.0 | 0.00 | 0.09 | 0.05 | 78 | 1006.9 |
| 20260505165502 | 53 | 77 | 2.0 | 3.0 | 0.00 | 0.09 | 0.05 | 78 | 1006.9 |
| 20260505165107 | 53 | 77 | 2.0 | 3.0 | 0.00 | 0.09 | 0.05 | 77 | 1006.8 |
| 20260505165002 | 54 | 77 | 2.0 | 3.0 | 0.00 | 0.09 | 0.05 | 77 | 1006.8 |
| 20260505164607 | 54 | 76 | 2.0 | 4.0 | 0.00 | 0.09 | 0.05 | 76 | 1006.6 |
| 20260505164523 | 54 | 76 | 2.0 | 4.0 | 0.00 | 0.09 | 0.05 | 76 | 1006.6 |
| 20260505164107 | 54 | 74 | 2.0 | 4.0 | 0.00 | 0.09 | 0.05 | 76 | 1006.7 |
| 20260505164002 | 54 | 73 | 2.0 | 4.0 | 0.00 | 0.09 | 0.05 | 76 | 1006.7 |
| 20260505163607 | 54 | 71 | 2.0 | 3.0 | 0.00 | 0.09 | 0.05 | 75 | 1006.8 |
| 20260505163502 | 54 | 71 | 2.0 | 3.0 | 0.00 | 0.09 | 0.05 | 74 | 1006.8 |
| 20260505163107 | 54 | 70 | 2.0 | 4.0 | 0.00 | 0.09 | 0.05 | 73 | 1006.6 |
| 20260505163002 | 54 | 70 | 2.0 | 4.0 | 0.00 | 0.09 | 0.05 | 73 | 1006.6 |
| 20260505162607 | 55 | 68 | 2.0 | 4.0 | 0.00 | 0.09 | 0.05 | 72 | 1006.6 |
| 20260505162502 | 55 | 68 | 2.0 | 4.0 | 0.00 | 0.09 | 0.05 | 71 | 1006.6 |
| 20260505162107 | 55 | 65 | 2.0 | 5.0 | 0.00 | 0.09 | 0.05 | 71 | 1006.2 |
| 20260505162003 | 55 | 65 | 2.0 | 5.0 | 0.00 | 0.09 | 0.05 | 70 | 1006.2 |
| 20260505161607 | 55 | 64 | 2.0 | 5.0 | 0.00 | 0.09 | 0.05 | 72 | 1006.0 |
| 20260505161502 | 55 | 64 | 2.0 | 5.0 | 0.00 | 0.09 | 0.05 | 73 | 1005.9 |
| 20260505161107 | 55 | 64 | 3.0 | 5.0 | 0.00 | 0.09 | 0.05 | 72 | 1005.8 |
| 20260505161001 | 55 | 64 | 3.0 | 5.0 | 0.00 | 0.09 | 0.05 | 72 | 1005.7 |
| 20260505160607 | 55 | 66 | 3.0 | 5.0 | 0.00 | 0.09 | 0.05 | 72 | 1005.6 |
| 20260505160502 | 55 | 65 | 3.0 | 5.0 | 0.00 | 0.09 | 0.05 | 73 | 1005.6 |
| 20260505160107 | 55 | 64 | 2.0 | 5.0 | 0.00 | 0.09 | 0.05 | 71 | 1005.8 |
| 20260505153037 | 57 | 81 | 3.0 | 7.0 | 0.00 | 0.09 | 0.05 | 70 | 1005.6 |
| 20260505153002 | 57 | 81 | 3.0 | 7.0 | 0.00 | 0.09 | 0.05 | 70 | 1005.6 |
| 20260505152536 | 58 | 74 | 3.0 | 9.0 | 0.00 | 0.09 | 0.05 | 69 | 1005.3 |
| 20260505152502 | 58 | 74 | 3.0 | 9.0 | 0.00 | 0.09 | 0.05 | 69 | 1005.3 |
| 20260505152036 | 59 | 45 | 3.0 | 9.0 | 0.00 | 0.09 | 0.05 | 67 | 1005.1 |
| 20260505152002 | 59 | 44 | 3.0 | 9.0 | 0.00 | 0.09 | 0.05 | 67 | 1005.1 |
| 20260505151536 | 60 | 316 | 2.0 | 7.0 | 0.00 | 0.09 | 0.05 | 66 | 1005.2 |
| 20260505151502 | 60 | 315 | 2.0 | 7.0 | 0.00 | 0.09 | 0.05 | 66 | 1005.2 |
| 20260505151036 | 60 | 322 | 2.0 | 7.0 | 0.00 | 0.09 | 0.05 | 68 | 1005.2 |
| 20260505151023 | 60 | 322 | 2.0 | 7.0 | 0.00 | 0.09 | 0.05 | 68 | 1005.2 |
| 20260505150536 | 60 | 331 | 3.0 | 7.0 | 0.00 | 0.09 | 0.05 | 68 | 1005.1 |
| 20260505150502 | 60 | 331 | 3.0 | 7.0 | 0.00 | 0.09 | 0.05 | 68 | 1005.1 |
| 20260505140535 | 62 | 303 | 4.0 | 10.0 | 0.00 | 0.09 | 0.05 | 61 | 1004.4 |
| 20260505140502 | 62 | 302 | 4.0 | 10.0 | 0.00 | 0.09 | 0.05 | 61 | 1004.4 |
| 20260505125035 | 61 | 251 | 5.0 | 12.0 | 0.00 | 0.09 | 0.05 | 76 | 1003.0 |
| 20260505125002 | 61 | 251 | 5.0 | 12.0 | 0.00 | 0.09 | 0.05 | 76 | 1003.0 |
| 20260505124534 | 61 | 241 | 4.0 | 11.0 | 0.00 | 0.09 | 0.05 | 77 | 1002.6 |
| 20260505124502 | 61 | 242 | 4.0 | 11.0 | 0.00 | 0.09 | 0.05 | 77 | 1002.6 |
| 20260505124034 | 61 | 249 | 5.0 | 11.0 | 0.00 | 0.09 | 0.05 | 77 | 1002.8 |
| 20260505124002 | 61 | 249 | 5.0 | 11.0 | 0.00 | 0.09 | 0.05 | 77 | 1002.8 |
| 20260505123534 | 60 | 257 | 6.0 | 11.0 | 0.00 | 0.09 | 0.05 | 77 | 1002.9 |
| 20260505123502 | 60 | 257 | 6.0 | 11.0 | 0.00 | 0.09 | 0.05 | 77 | 1002.9 |
| 20260505123034 | 60 | 260 | 5.0 | 11.0 | 0.00 | 0.09 | 0.05 | 78 | 1003.1 |
| 20260505123003 | 60 | 260 | 5.0 | 11.0 | 0.00 | 0.09 | 0.05 | 78 | 1003.1 |
| 20260505122534 | 60 | 256 | 3.0 | 10.0 | 0.00 | 0.09 | 0.05 | 78 | 1003.1 |
| 20260505122502 | 60 | 256 | 3.0 | 10.0 | 0.00 | 0.09 | 0.05 | 78 | 1003.1 |
| 20260505122034 | 60 | 264 | 3.0 | 9.0 | 0.00 | 0.09 | 0.05 | 79 | 1002.7 |
| 20260505122002 | 60 | 264 | 3.0 | 9.0 | 0.00 | 0.09 | 0.05 | 79 | 1002.7 |
| 20260505121534 | 60 | 263 | 4.0 | 10.0 | 0.00 | 0.09 | 0.05 | 79 | 1002.9 |
| 20260505121502 | 60 | 263 | 4.0 | 10.0 | 0.00 | 0.09 | 0.05 | 79 | 1002.9 |
| 20260505121034 | 59 | 262 | 3.0 | 10.0 | 0.00 | 0.09 | 0.05 | 80 | 1003.0 |
| 20260505121024 | 59 | 262 | 3.0 | 10.0 | 0.00 | 0.09 | 0.05 | 80 | 1003.0 |
| 20260505120534 | 59 | 264 | 4.0 | 14.0 | 0.00 | 0.09 | 0.05 | 80 | 1002.9 |
| 20260505120523 | 60 | 264 | 4.0 | 14.0 | 0.00 | 0.09 | 0.05 | 80 | 1002.9 |
| 20260505120034 | 60 | 263 | 5.0 | 14.0 | 0.00 | 0.09 | 0.05 | 80 | 1003.0 |
| 20260505120003 | 60 | 263 | 5.0 | 14.0 | 0.00 | 0.09 | 0.05 | 80 | 1003.0 |
| 20260505115534 | 59 | 254 | 4.0 | 12.0 | 0.00 | 0.09 | 0.05 | 80 | 1002.9 |
| 20260505115502 | 59 | 254 | 4.0 | 12.0 | 0.00 | 0.09 | 0.05 | 80 | 1002.9 |
| 20260505115034 | 59 | 247 | 4.0 | 12.0 | 0.00 | 0.09 | 0.05 | 81 | 1002.8 |
| 20260505115003 | 59 | 247 | 4.0 | 12.0 | 0.00 | 0.09 | 0.05 | 81 | 1002.8 |
| 20260505114534 | 59 | 252 | 4.0 | 10.0 | 0.00 | 0.09 | 0.05 | 80 | 1002.9 |
| 20260505114523 | 59 | 252 | 4.0 | 10.0 | 0.00 | 0.09 | 0.05 | 80 | 1002.9 |
| 20260505114034 | 59 | 252 | 5.0 | 10.0 | 0.00 | 0.09 | 0.05 | 81 | 1002.7 |
| 20260505114002 | 59 | 252 | 5.0 | 10.0 | 0.00 | 0.09 | 0.05 | 81 | 1002.7 |
| 20260505113533 | 59 | 248 | 4.0 | 9.0 | 0.00 | 0.09 | 0.05 | 81 | 1002.4 |
| 20260505113502 | 59 | 248 | 4.0 | 9.0 | 0.00 | 0.09 | 0.05 | 81 | 1002.4 |
| 20260505113033 | 59 | 247 | 3.0 | 8.0 | 0.00 | 0.09 | 0.05 | 81 | 1002.2 |
| 20260505113002 | 59 | 247 | 3.0 | 8.0 | 0.00 | 0.09 | 0.05 | 81 | 1002.2 |
| 20260505112533 | 59 | 244 | 3.0 | 8.0 | 0.00 | 0.09 | 0.05 | 80 | 1002.0 |
| 20260505112503 | 59 | 244 | 3.0 | 8.0 | 0.00 | 0.09 | 0.05 | 80 | 1002.0 |
| 20260505112033 | 59 | 249 | 3.0 | 8.0 | 0.00 | 0.09 | 0.05 | 80 | 1001.8 |
| 20260505112002 | 59 | 249 | 3.0 | 8.0 | 0.00 | 0.09 | 0.05 | 80 | 1001.8 |
| 20260505111533 | 59 | 259 | 3.0 | 8.0 | 0.00 | 0.09 | 0.05 | 80 | 1001.7 |
| 20260505111502 | 59 | 259 | 3.0 | 8.0 | 0.00 | 0.09 | 0.05 | 80 | 1001.7 |
| 20260505111033 | 59 | 261 | 5.0 | 12.0 | 0.00 | 0.09 | 0.05 | 80 | 1001.6 |
| 20260505111002 | 59 | 261 | 5.0 | 12.0 | 0.00 | 0.09 | 0.05 | 80 | 1001.6 |
| 20260505110533 | 59 | 259 | 5.0 | 12.0 | 0.00 | 0.09 | 0.05 | 80 | 1001.7 |
| 20260505110502 | 59 | 259 | 5.0 | 12.0 | 0.00 | 0.09 | 0.05 | 80 | 1001.7 |
| 20260505102032 | 59 | 250 | 6.0 | 15.0 | 0.00 | 0.09 | 0.05 | 81 | 1000.7 |
| 20260505102002 | 59 | 250 | 6.0 | 15.0 | 0.00 | 0.09 | 0.05 | 81 | 1000.7 |
| 20260505101532 | 59 | 241 | 6.0 | 18.0 | 0.00 | 0.09 | 0.05 | 81 | 1000.7 |
| 20260505101503 | 59 | 241 | 6.0 | 18.0 | 0.00 | 0.09 | 0.05 | 81 | 1000.7 |
| 20260505101032 | 59 | 240 | 6.0 | 18.0 | 0.00 | 0.09 | 0.05 | 81 | 1000.8 |
| 20260505101002 | 59 | 240 | 6.0 | 18.0 | 0.00 | 0.09 | 0.05 | 82 | 1000.8 |
| 20260505100532 | 59 | 244 | 5.0 | 13.0 | 0.00 | 0.09 | 0.05 | 82 | 1000.6 |
| 20260505100503 | 59 | 244 | 5.0 | 13.0 | 0.00 | 0.09 | 0.05 | 82 | 1000.6 |
| 20260505100032 | 59 | 240 | 5.0 | 13.0 | 0.00 | 0.09 | 0.05 | 82 | 1000.6 |
| 20260505100002 | 59 | 240 | 5.0 | 13.0 | 0.00 | 0.09 | 0.05 | 82 | 1000.6 |
| 20260505095532 | 59 | 238 | 5.0 | 14.0 | 0.00 | 0.09 | 0.05 | 82 | 1000.6 |
| 20260505095502 | 59 | 238 | 5.0 | 14.0 | 0.00 | 0.09 | 0.05 | 82 | 1000.6 |
| 20260505095032 | 59 | 243 | 5.0 | 14.0 | 0.00 | 0.09 | 0.05 | 82 | 1000.6 |
| 20260505095002 | 59 | 243 | 5.0 | 14.0 | 0.00 | 0.09 | 0.05 | 82 | 1000.6 |
| 20260505094532 | 59 | 251 | 5.0 | 19.0 | 0.00 | 0.09 | 0.05 | 82 | 1000.5 |
| 20260505094502 | 59 | 251 | 5.0 | 19.0 | 0.00 | 0.09 | 0.05 | 82 | 1000.5 |
| 20260505094032 | 59 | 248 | 6.0 | 19.0 | 0.00 | 0.09 | 0.05 | 82 | 1000.6 |
| 20260505094003 | 59 | 248 | 6.0 | 19.0 | 0.00 | 0.09 | 0.05 | 82 | 1000.6 |
| 20260505093532 | 59 | 240 | 6.0 | 16.0 | 0.00 | 0.09 | 0.05 | 82 | 1000.4 |
| 20260505093503 | 59 | 240 | 6.0 | 16.0 | 0.00 | 0.09 | 0.05 | 82 | 1000.4 |
| 20260505093032 | 59 | 239 | 6.0 | 13.0 | 0.00 | 0.09 | 0.05 | 83 | 1000.4 |
| 20260505093002 | 59 | 239 | 6.0 | 13.0 | 0.00 | 0.09 | 0.05 | 83 | 1000.4 |
| 20260505092532 | 59 | 243 | 5.0 | 13.0 | 0.00 | 0.09 | 0.05 | 83 | 1000.3 |
| 20260505092524 | 59 | 243 | 5.0 | 13.0 | 0.00 | 0.09 | 0.05 | 83 | 1000.3 |
| 20260505092032 | 59 | 239 | 5.0 | 11.0 | 0.00 | 0.09 | 0.05 | 83 | 1000.3 |
| 20260505092003 | 59 | 239 | 5.0 | 11.0 | 0.00 | 0.09 | 0.05 | 83 | 1000.3 |
| 20260505091532 | 59 | 230 | 5.0 | 11.0 | 0.00 | 0.09 | 0.05 | 83 | 1000.3 |
| 20260505091524 | 59 | 230 | 5.0 | 11.0 | 0.00 | 0.09 | 0.05 | 83 | 1000.3 |
| 20260505091032 | 59 | 217 | 5.0 | 10.0 | 0.00 | 0.09 | 0.05 | 83 | 1000.2 |
| 20260505091002 | 59 | 217 | 5.0 | 10.0 | 0.00 | 0.09 | 0.05 | 83 | 1000.2 |
| 20260505090531 | 59 | 221 | 4.0 | 12.0 | 0.00 | 0.09 | 0.05 | 84 | 1000.2 |
| 20260505090524 | 59 | 221 | 4.0 | 12.0 | 0.00 | 0.09 | 0.05 | 84 | 1000.2 |
| 20260505090031 | 59 | 228 | 3.0 | 12.0 | 0.00 | 0.09 | 0.05 | 84 | 1000.3 |
| 20260505090003 | 59 | 228 | 3.0 | 12.0 | 0.00 | 0.09 | 0.05 | 84 | 1000.3 |
| 20260505085531 | 59 | 221 | 3.0 | 8.0 | 0.00 | 0.09 | 0.05 | 84 | 1000.3 |
| 20260505085503 | 59 | 221 | 3.0 | 8.0 | 0.00 | 0.09 | 0.05 | 84 | 1000.3 |
| 20260505085031 | 59 | 222 | 3.0 | 8.0 | 0.00 | 0.09 | 0.05 | 84 | 1000.4 |
| 20260505085023 | 59 | 221 | 3.0 | 8.0 | 0.00 | 0.09 | 0.05 | 84 | 1000.4 |
| 20260505084531 | 59 | 223 | 3.0 | 8.0 | 0.00 | 0.09 | 0.05 | 84 | 1000.2 |
| 20260505084524 | 59 | 223 | 3.0 | 8.0 | 0.00 | 0.09 | 0.05 | 84 | 1000.2 |
| 20260505084031 | 59 | 233 | 4.0 | 9.0 | 0.00 | 0.09 | 0.05 | 84 | 1000.2 |
| 20260505084002 | 59 | 233 | 4.0 | 9.0 | 0.00 | 0.09 | 0.05 | 84 | 1000.2 |
| 20260505083531 | 59 | 238 | 4.0 | 11.0 | 0.00 | 0.09 | 0.05 | 84 | 1000.0 |
| 20260505083502 | 59 | 238 | 4.0 | 11.0 | 0.00 | 0.09 | 0.05 | 84 | 1000.0 |
| 20260505083031 | 59 | 239 | 5.0 | 11.0 | 0.00 | 0.09 | 0.05 | 85 | 999.9 |
| 20260505083002 | 59 | 239 | 5.0 | 11.0 | 0.00 | 0.09 | 0.05 | 85 | 999.9 |
| 20260505082531 | 59 | 242 | 4.0 | 10.0 | 0.00 | 0.09 | 0.05 | 85 | 1000.0 |
| 20260505082503 | 59 | 242 | 4.0 | 10.0 | 0.00 | 0.09 | 0.05 | 85 | 1000.0 |
| 20260505082031 | 59 | 241 | 4.0 | 10.0 | 0.00 | 0.09 | 0.05 | 85 | 999.9 |
| 20260505082002 | 59 | 241 | 4.0 | 10.0 | 0.00 | 0.09 | 0.05 | 85 | 999.9 |
| 20260505081531 | 59 | 240 | 4.0 | 14.0 | 0.00 | 0.09 | 0.05 | 85 | 1000.0 |
| 20260505081502 | 59 | 240 | 4.0 | 14.0 | 0.00 | 0.09 | 0.05 | 85 | 1000.0 |
| 20260505081031 | 59 | 237 | 4.0 | 14.0 | 0.00 | 0.09 | 0.05 | 85 | 999.7 |
| 20260505081003 | 59 | 237 | 4.0 | 14.0 | 0.00 | 0.09 | 0.05 | 85 | 999.7 |
| 20260505080531 | 59 | 231 | 3.0 | 9.0 | 0.00 | 0.09 | 0.05 | 84 | 999.8 |
| 20260505080503 | 59 | 231 | 3.0 | 9.0 | 0.00 | 0.09 | 0.05 | 84 | 999.8 |
| 20260505080031 | 59 | 236 | 3.0 | 8.0 | 0.00 | 0.09 | 0.05 | 84 | 999.6 |
| 20260505080002 | 59 | 236 | 3.0 | 8.0 | 0.00 | 0.09 | 0.05 | 84 | 999.6 |
| 20260505075531 | 59 | 235 | 3.0 | 8.0 | 0.00 | 0.09 | 0.05 | 84 | 999.2 |
| 20260505075503 | 59 | 235 | 3.0 | 8.0 | 0.00 | 0.09 | 0.05 | 84 | 999.2 |
| 20260505075031 | 59 | 226 | 4.0 | 9.0 | 0.00 | 0.09 | 0.05 | 84 | 999.2 |
| 20260505075003 | 59 | 227 | 4.0 | 9.0 | 0.00 | 0.09 | 0.05 | 84 | 999.2 |
| 20260505074530 | 59 | 220 | 4.0 | 9.0 | 0.00 | 0.09 | 0.05 | 84 | 999.1 |
| 20260505074524 | 59 | 220 | 4.0 | 9.0 | 0.00 | 0.09 | 0.05 | 84 | 999.1 |
| 20260505074030 | 59 | 225 | 3.0 | 7.0 | 0.00 | 0.09 | 0.05 | 84 | 999.0 |
| 20260505074023 | 59 | 225 | 3.0 | 7.0 | 0.00 | 0.09 | 0.05 | 84 | 999.0 |
| 20260505073530 | 59 | 243 | 4.0 | 10.0 | 0.00 | 0.09 | 0.05 | 84 | 998.8 |
| 20260505073503 | 59 | 243 | 4.0 | 10.0 | 0.00 | 0.09 | 0.05 | 84 | 998.8 |
| 20260505073030 | 59 | 244 | 3.0 | 10.0 | 0.00 | 0.09 | 0.05 | 84 | 998.7 |
| 20260505073003 | 59 | 244 | 3.0 | 10.0 | 0.00 | 0.09 | 0.05 | 84 | 998.7 |
| 20260505072530 | 59 | 228 | 3.0 | 8.0 | 0.00 | 0.09 | 0.05 | 84 | 998.7 |
| 20260505072524 | 59 | 228 | 3.0 | 8.0 | 0.00 | 0.09 | 0.05 | 84 | 998.7 |
| 20260505072030 | 60 | 226 | 4.0 | 8.0 | 0.00 | 0.09 | 0.05 | 83 | 998.6 |
| 20260505072003 | 60 | 226 | 4.0 | 8.0 | 0.00 | 0.09 | 0.05 | 83 | 998.6 |
| 20260505071530 | 60 | 230 | 5.0 | 10.0 | 0.00 | 0.09 | 0.05 | 83 | 998.7 |
| 20260505071524 | 60 | 230 | 5.0 | 10.0 | 0.00 | 0.09 | 0.05 | 83 | 998.7 |
| 20260505071030 | 60 | 234 | 5.0 | 10.0 | 0.00 | 0.09 | 0.05 | 83 | 999.0 |
| 20260505071003 | 60 | 234 | 5.0 | 10.0 | 0.00 | 0.09 | 0.05 | 83 | 999.0 |
| 20260505070530 | 60 | 244 | 5.0 | 12.0 | 0.00 | 0.09 | 0.05 | 83 | 999.3 |
| 20260505070503 | 60 | 245 | 5.0 | 12.0 | 0.00 | 0.09 | 0.05 | 83 | 999.3 |
| 20260505070030 | 60 | 248 | 5.0 | 12.0 | 0.00 | 0.09 | 0.05 | 83 | 999.1 |
| 20260505070023 | 60 | 248 | 5.0 | 12.0 | 0.00 | 0.09 | 0.05 | 83 | 999.1 |
| 20260505065530 | 60 | 238 | 4.0 | 11.0 | 0.00 | 0.09 | 0.05 | 83 | 999.1 |
| 20260505065503 | 60 | 238 | 4.0 | 11.0 | 0.00 | 0.09 | 0.05 | 83 | 999.1 |
| 20260505065030 | 60 | 230 | 4.0 | 9.0 | 0.00 | 0.09 | 0.05 | 83 | 999.2 |
| 20260505065003 | 60 | 230 | 4.0 | 9.0 | 0.00 | 0.09 | 0.05 | 83 | 999.2 |
| 20260505064529 | 60 | 241 | 5.0 | 13.0 | 0.00 | 0.09 | 0.05 | 83 | 999.3 |
| 20260505064503 | 60 | 241 | 5.0 | 13.0 | 0.00 | 0.09 | 0.05 | 83 | 999.3 |
| 20260505064029 | 60 | 243 | 5.0 | 13.0 | 0.00 | 0.09 | 0.05 | 84 | 999.5 |
| 20260505064002 | 60 | 243 | 5.0 | 13.0 | 0.00 | 0.09 | 0.05 | 84 | 999.5 |
| 20260505063529 | 59 | 248 | 6.0 | 17.0 | 0.00 | 0.09 | 0.05 | 84 | 999.5 |
| 20260505063504 | 59 | 248 | 6.0 | 17.0 | 0.00 | 0.09 | 0.05 | 84 | 999.5 |
| 20260505063029 | 59 | 249 | 5.0 | 17.0 | 0.00 | 0.09 | 0.05 | 84 | 999.8 |
| 20260505063003 | 59 | 249 | 5.0 | 17.0 | 0.00 | 0.09 | 0.05 | 84 | 999.8 |
| 20260505062529 | 59 | 236 | 3.0 | 11.0 | 0.01 | 0.09 | 0.05 | 84 | 999.3 |
| 20260505062502 | 59 | 236 | 3.0 | 11.0 | 0.01 | 0.09 | 0.05 | 84 | 999.3 |
| 20260505062029 | 59 | 228 | 3.0 | 8.0 | 0.01 | 0.09 | 0.05 | 84 | 999.3 |
| 20260505062004 | 59 | 228 | 3.0 | 8.0 | 0.01 | 0.09 | 0.05 | 84 | 999.3 |
| 20260505061529 | 59 | 220 | 3.0 | 8.0 | 0.02 | 0.09 | 0.05 | 84 | 999.1 |
| 20260505061503 | 59 | 220 | 3.0 | 8.0 | 0.02 | 0.09 | 0.05 | 84 | 999.1 |
| 20260505061029 | 59 | 218 | 2.0 | 7.0 | 0.04 | 0.09 | 0.05 | 84 | 998.9 |
| 20260505061002 | 59 | 218 | 2.0 | 7.0 | 0.04 | 0.09 | 0.05 | 84 | 998.9 |
| 20260505060529 | 59 | 217 | 2.0 | 8.0 | 0.05 | 0.09 | 0.05 | 85 | 999.0 |
| 20260505060504 | 59 | 217 | 2.0 | 8.0 | 0.05 | 0.09 | 0.05 | 85 | 999.0 |
| 20260505060029 | 59 | 209 | 3.0 | 8.0 | 0.05 | 0.09 | 0.05 | 85 | 999.0 |
| 20260505060003 | 59 | 209 | 3.0 | 8.0 | 0.05 | 0.09 | 0.05 | 85 | 999.0 |
| 20260505055529 | 59 | 212 | 3.0 | 7.0 | 0.05 | 0.09 | 0.05 | 84 | 999.2 |
| 20260505055503 | 59 | 212 | 3.0 | 7.0 | 0.05 | 0.09 | 0.05 | 84 | 999.2 |
| 20260505055029 | 59 | 216 | 4.0 | 13.0 | 0.05 | 0.09 | 0.05 | 84 | 999.1 |
| 20260505055003 | 59 | 216 | 4.0 | 13.0 | 0.05 | 0.09 | 0.05 | 84 | 999.1 |
| 20260505054529 | 60 | 215 | 4.0 | 13.0 | 0.05 | 0.09 | 0.05 | 83 | 999.4 |
| 20260505054503 | 60 | 215 | 4.0 | 13.0 | 0.05 | 0.09 | 0.05 | 83 | 999.4 |
| 20260505054029 | 60 | 212 | 3.0 | 7.0 | 0.05 | 0.09 | 0.05 | 83 | 999.6 |
| 20260505054003 | 60 | 212 | 3.0 | 6.0 | 0.05 | 0.09 | 0.05 | 83 | 999.6 |
| 20260505053529 | 60 | 203 | 3.0 | 7.0 | 0.05 | 0.09 | 0.05 | 82 | 1000.0 |
| 20260505053524 | 60 | 203 | 3.0 | 7.0 | 0.05 | 0.09 | 0.05 | 82 | 1000.0 |
| 20260505053029 | 61 | 214 | 4.0 | 9.0 | 0.05 | 0.09 | 0.05 | 81 | 999.7 |
| 20260505053004 | 61 | 215 | 4.0 | 9.0 | 0.05 | 0.09 | 0.05 | 81 | 999.7 |
| 20260505052529 | 62 | 242 | 5.0 | 13.0 | 0.04 | 0.08 | 0.04 | 79 | 999.8 |
| 20260505052503 | 62 | 242 | 5.0 | 14.0 | 0.04 | 0.08 | 0.04 | 79 | 999.8 |
| 20260505052029 | 63 | 248 | 7.0 | 24.0 | 0.04 | 0.08 | 0.04 | 77 | 999.7 |
| 20260505052003 | 63 | 248 | 7.0 | 24.0 | 0.04 | 0.08 | 0.04 | 77 | 999.7 |
| 20260505051528 | 64 | 240 | 9.0 | 24.0 | 0.03 | 0.07 | 0.03 | 75 | 1000.2 |
| 20260505051524 | 64 | 241 | 9.0 | 24.0 | 0.03 | 0.07 | 0.03 | 75 | 1000.2 |
| 20260505051028 | 65 | 236 | 10.0 | 30.0 | 0.01 | 0.05 | 0.01 | 72 | 1000.4 |
| 20260505051003 | 65 | 236 | 10.0 | 30.0 | 0.01 | 0.05 | 0.01 | 72 | 1000.4 |
| 20260505050528 | 67 | 227 | 10.0 | 30.0 | 0.00 | 0.04 | 0.00 | 68 | 1000.3 |
| 20260505050503 | 67 | 227 | 10.0 | 30.0 | 0.00 | 0.04 | 0.00 | 68 | 1000.3 |
| 20260505041528 | 66 | 208 | 5.0 | 15.0 | 0.00 | 0.04 | 0.00 | 70 | 999.5 |
| 20260505041503 | 66 | 208 | 5.0 | 15.0 | 0.00 | 0.04 | 0.00 | 70 | 999.5 |
| 20260505041028 | 65 | 198 | 5.0 | 12.0 | 0.00 | 0.04 | 0.00 | 71 | 999.5 |
| 20260505041003 | 65 | 198 | 5.0 | 12.0 | 0.00 | 0.04 | 0.00 | 71 | 999.5 |
| 20260505040527 | 65 | 183 | 5.0 | 12.0 | 0.00 | 0.04 | 0.00 | 71 | 999.2 |
| 20260505040503 | 65 | 183 | 5.0 | 12.0 | 0.00 | 0.04 | 0.00 | 71 | 999.2 |
| 20260505040027 | 65 | 181 | 4.0 | 9.0 | 0.00 | 0.04 | 0.00 | 71 | 999.1 |
| 20260505040004 | 65 | 181 | 4.0 | 9.0 | 0.00 | 0.04 | 0.00 | 71 | 999.0 |
| 20260505035527 | 65 | 185 | 4.0 | 8.0 | 0.00 | 0.04 | 0.04 | 71 | 999.1 |
| 20260505035504 | 65 | 185 | 4.0 | 8.0 | 0.00 | 0.04 | 0.04 | 71 | 999.1 |
| 20260505035027 | 65 | 172 | 3.0 | 7.0 | 0.00 | 0.04 | 0.04 | 71 | 999.1 |
| 20260505035003 | 65 | 172 | 3.0 | 7.0 | 0.00 | 0.04 | 0.04 | 71 | 999.1 |
| 20260505034527 | 65 | 165 | 3.0 | 7.0 | 0.00 | 0.04 | 0.04 | 71 | 999.1 |
| 20260505034505 | 65 | 165 | 3.0 | 7.0 | 0.00 | 0.04 | 0.04 | 71 | 999.1 |
| 20260505034027 | 65 | 190 | 3.0 | 7.0 | 0.00 | 0.04 | 0.04 | 71 | 999.1 |
| 20260505034003 | 65 | 190 | 3.0 | 7.0 | 0.00 | 0.04 | 0.04 | 71 | 999.1 |
| 20260505033527 | 65 | 200 | 4.0 | 9.0 | 0.00 | 0.04 | 0.04 | 71 | 999.2 |
| 20260505033503 | 65 | 200 | 4.0 | 9.0 | 0.00 | 0.04 | 0.04 | 71 | 999.2 |
| 20260505033027 | 65 | 195 | 4.0 | 9.0 | 0.00 | 0.04 | 0.04 | 71 | 999.4 |
| 20260505033003 | 65 | 195 | 4.0 | 9.0 | 0.00 | 0.04 | 0.04 | 71 | 999.4 |
| 20260505032527 | 65 | 190 | 3.0 | 9.0 | 0.00 | 0.04 | 0.04 | 71 | 999.5 |
| 20260505032503 | 65 | 190 | 3.0 | 9.0 | 0.00 | 0.04 | 0.04 | 71 | 999.5 |
| 20260505032027 | 65 | 194 | 3.0 | 8.0 | 0.00 | 0.04 | 0.04 | 71 | 999.6 |
| 20260505032003 | 65 | 194 | 3.0 | 8.0 | 0.00 | 0.04 | 0.04 | 71 | 999.6 |
| 20260505031527 | 66 | 198 | 3.0 | 8.0 | 0.00 | 0.04 | 0.04 | 71 | 999.7 |
| 20260505031503 | 66 | 198 | 3.0 | 8.0 | 0.00 | 0.04 | 0.04 | 71 | 999.7 |
| 20260505031027 | 66 | 193 | 4.0 | 7.0 | 0.00 | 0.04 | 0.04 | 71 | 999.7 |
| 20260505031003 | 66 | 194 | 4.0 | 7.0 | 0.00 | 0.04 | 0.04 | 71 | 999.7 |
| 20260505030527 | 66 | 188 | 4.0 | 6.0 | 0.00 | 0.04 | 0.04 | 70 | 999.8 |
| 20260505030503 | 66 | 188 | 4.0 | 6.0 | 0.00 | 0.04 | 0.04 | 70 | 999.8 |
| 20260505030027 | 66 | 195 | 4.0 | 9.0 | 0.00 | 0.04 | 0.04 | 70 | 999.8 |
| 20260505030024 | 66 | 192 | 4.0 | 9.0 | 0.00 | 0.04 | 0.04 | 70 | 999.8 |
| 20260505025527 | 66 | 202 | 4.0 | 9.0 | 0.00 | 0.04 | 0.04 | 69 | 999.9 |
| 20260505025504 | 66 | 202 | 4.0 | 9.0 | 0.00 | 0.04 | 0.04 | 69 | 999.9 |
| 20260505025026 | 66 | 205 | 5.0 | 13.0 | 0.00 | 0.04 | 0.04 | 70 | 1000.0 |
| 20260505025004 | 66 | 205 | 5.0 | 13.0 | 0.00 | 0.04 | 0.04 | 70 | 1000.0 |
| 20260505024526 | 66 | 206 | 5.0 | 13.0 | 0.00 | 0.04 | 0.04 | 70 | 1000.0 |
| 20260505024503 | 66 | 206 | 5.0 | 13.0 | 0.00 | 0.04 | 0.04 | 70 | 1000.0 |
| 20260505024026 | 66 | 208 | 5.0 | 11.0 | 0.00 | 0.04 | 0.04 | 71 | 999.9 |
| 20260505024024 | 66 | 208 | 5.0 | 11.0 | 0.00 | 0.04 | 0.04 | 71 | 999.9 |
| 20260505023526 | 65 | 209 | 4.0 | 11.0 | 0.00 | 0.04 | 0.04 | 71 | 999.9 |
| 20260505023503 | 65 | 208 | 4.0 | 11.0 | 0.00 | 0.04 | 0.04 | 71 | 999.9 |
| 20260505023026 | 65 | 207 | 4.0 | 10.0 | 0.00 | 0.04 | 0.04 | 72 | 999.9 |
| 20260505023004 | 65 | 207 | 4.0 | 10.0 | 0.00 | 0.04 | 0.04 | 72 | 999.9 |
| 20260505022526 | 65 | 212 | 4.0 | 10.0 | 0.00 | 0.04 | 0.04 | 73 | 999.9 |
| 20260505022524 | 65 | 212 | 4.0 | 10.0 | 0.00 | 0.04 | 0.04 | 73 | 999.9 |
| 20260505022026 | 64 | 214 | 3.0 | 7.0 | 0.00 | 0.04 | 0.04 | 74 | 999.9 |
| 20260505022003 | 64 | 214 | 3.0 | 7.0 | 0.00 | 0.04 | 0.04 | 74 | 999.9 |
| 20260505021526 | 64 | 211 | 4.0 | 12.0 | 0.00 | 0.04 | 0.04 | 75 | 999.9 |
| 20260505021524 | 64 | 210 | 4.0 | 12.0 | 0.00 | 0.04 | 0.04 | 74 | 999.9 |
| 20260505021026 | 64 | 211 | 4.0 | 12.0 | 0.01 | 0.04 | 0.04 | 75 | 999.9 |
| 20260505021003 | 64 | 211 | 4.0 | 12.0 | 0.01 | 0.04 | 0.04 | 75 | 999.9 |
| 20260505020526 | 64 | 213 | 4.0 | 12.0 | 0.01 | 0.04 | 0.04 | 76 | 999.8 |
| 20260505020503 | 64 | 213 | 4.0 | 12.0 | 0.01 | 0.04 | 0.04 | 76 | 999.8 |
| 20260505020026 | 64 | 206 | 4.0 | 12.0 | 0.01 | 0.04 | 0.04 | 77 | 999.8 |
| 20260505020004 | 64 | 206 | 4.0 | 12.0 | 0.01 | 0.04 | 0.04 | 77 | 999.8 |
| 20260505015526 | 64 | 206 | 4.0 | 11.0 | 0.01 | 0.04 | 0.04 | 78 | 999.9 |
| 20260505015504 | 64 | 206 | 4.0 | 11.0 | 0.01 | 0.04 | 0.04 | 78 | 999.9 |
| 20260505015026 | 63 | 238 | 4.0 | 11.0 | 0.01 | 0.04 | 0.04 | 79 | 1000.0 |
| 20260505015003 | 63 | 239 | 4.0 | 11.0 | 0.01 | 0.04 | 0.04 | 79 | 1000.0 |
| 20260505014526 | 63 | 281 | 2.0 | 7.0 | 0.01 | 0.04 | 0.04 | 80 | 1000.2 |
| 20260505014524 | 63 | 279 | 2.0 | 7.0 | 0.01 | 0.04 | 0.04 | 80 | 1000.1 |
| 20260505014026 | 63 | 305 | 1.0 | 5.0 | 0.01 | 0.04 | 0.04 | 80 | 1000.1 |
| 20260505014003 | 63 | 305 | 1.0 | 5.0 | 0.01 | 0.04 | 0.04 | 80 | 999.8 |
| 20260505013525 | 64 | 297 | 2.0 | 6.0 | 0.01 | 0.04 | 0.04 | 80 | 999.7 |
| 20260505013025 | 64 | 280 | 3.0 | 6.0 | 0.01 | 0.04 | 0.04 | 79 | 999.7 |
| 20260505013003 | 64 | 280 | 3.0 | 6.0 | 0.01 | 0.04 | 0.04 | 79 | 999.7 |
| 20260505012525 | 64 | 253 | 2.0 | 6.0 | 0.01 | 0.04 | 0.04 | 79 | 999.7 |
| 20260505012503 | 64 | 253 | 2.0 | 6.0 | 0.01 | 0.04 | 0.04 | 79 | 999.7 |
| 20260505012025 | 64 | 206 | 1.0 | 6.0 | 0.01 | 0.04 | 0.04 | 79 | 999.5 |
| 20260505012004 | 64 | 206 | 1.0 | 6.0 | 0.01 | 0.04 | 0.04 | 79 | 999.5 |
| 20260505011525 | 64 | 211 | 3.0 | 8.0 | 0.01 | 0.04 | 0.04 | 78 | 999.3 |
| 20260505011503 | 64 | 211 | 3.0 | 8.0 | 0.01 | 0.04 | 0.04 | 78 | 999.3 |
| 20260505011025 | 64 | 211 | 4.0 | 8.0 | 0.00 | 0.03 | 0.03 | 77 | 999.5 |
| 20260505011003 | 64 | 211 | 4.0 | 8.0 | 0.00 | 0.03 | 0.03 | 77 | 999.5 |
| 20260505010525 | 64 | 208 | 4.0 | 8.0 | 0.00 | 0.03 | 0.03 | 77 | 999.4 |
| 20260505010503 | 64 | 209 | 4.0 | 8.0 | 0.00 | 0.03 | 0.03 | 77 | 999.4 |
| 20260505010025 | 64 | 211 | 4.0 | 8.0 | 0.01 | 0.03 | 0.03 | 78 | 999.5 |
| 20260505010004 | 64 | 211 | 4.0 | 8.0 | 0.01 | 0.03 | 0.03 | 78 | 999.5 |
| 20260505005525 | 63 | 214 | 4.0 | 10.0 | 0.03 | 0.03 | 0.03 | 78 | 999.5 |
| 20260505005503 | 63 | 214 | 4.0 | 10.0 | 0.03 | 0.03 | 0.03 | 78 | 999.5 |
| 20260505005025 | 63 | 218 | 5.0 | 11.0 | 0.03 | 0.03 | 0.03 | 78 | 999.4 |
| 20260505005004 | 63 | 218 | 5.0 | 11.0 | 0.03 | 0.03 | 0.03 | 78 | 999.4 |
| 20260505004525 | 63 | 216 | 4.0 | 11.0 | 0.03 | 0.03 | 0.03 | 79 | 999.4 |
| 20260505004504 | 63 | 216 | 4.0 | 11.0 | 0.03 | 0.03 | 0.03 | 79 | 999.4 |
| 20260505004025 | 62 | 211 | 4.0 | 11.0 | 0.03 | 0.03 | 0.03 | 79 | 999.3 |
| 20260505004004 | 62 | 211 | 4.0 | 11.0 | 0.03 | 0.03 | 0.03 | 79 | 999.3 |
| 20260505003522 | 62 | 214 | 4.0 | 10.0 | 0.03 | 0.03 | 0.03 | 79 | 999.3 |
| 20260505003455 | 62 | 213 | 4.0 | 10.0 | 0.03 | 0.03 | 0.03 | 79 | 999.2 |
| 20260505003001 | 62 | 217 | 3.0 | 10.0 | 0.03 | 0.03 | 0.03 | 79 | 999.3 |
| 20260505002954 | 62 | 221 | 3.0 | 10.0 | 0.03 | 0.03 | 0.03 | 79 | 999.3 |
| 20260505002522 | 62 | 225 | 3.0 | 7.0 | 0.03 | 0.03 | 0.03 | 79 | 999.2 |
| 20260505002454 | 62 | 228 | 3.0 | 7.0 | 0.03 | 0.03 | 0.03 | 78 | 999.1 |
| 20260505002001 | 62 | 225 | 3.0 | 7.0 | 0.03 | 0.03 | 0.03 | 77 | 998.8 |
| 20260505001954 | 63 | 221 | 3.0 | 8.0 | 0.03 | 0.03 | 0.03 | 77 | 998.8 |
| 20260505001502 | 63 | 223 | 3.0 | 9.0 | 0.03 | 0.03 | 0.03 | 75 | 998.7 |
| 20260505001454 | 63 | 221 | 4.0 | 9.0 | 0.03 | 0.03 | 0.03 | 75 | 998.7 |
| 20260505001001 | 64 | 213 | 6.0 | 23.0 | 0.03 | 0.03 | 0.03 | 72 | 999.0 |
| 20260505000954 | 65 | 213 | 8.0 | 23.0 | 0.03 | 0.03 | 0.03 | 72 | 999.0 |
| 20260505000501 | 67 | 219 | 12.0 | 29.0 | 0.03 | 0.03 | 0.03 | 67 | 999.1 |
| 20260505000454 | 68 | 219 | 11.0 | 29.0 | 0.03 | 0.03 | 0.03 | 66 | 999.1 |
| 20260505000000 | 73 | 221 | 9.0 | 29.0 | 0.01 | 0.01 | 0.01 | 56 | 999.6 |
| 20260504235954 | 74 | 221 | 8.0 | 29.0 | 0.00 | 0.00 | 0.00 | 54 | 999.6 |
| 20260504235501 | 75 | 210 | 5.0 | 12.0 | 0.00 | 0.00 | 0.00 | 50 | 998.0 |
| 20260504235454 | 75 | 210 | 5.0 | 17.0 | 0.00 | 0.00 | 0.00 | 50 | 998.0 |
| 20260504235001 | 75 | 212 | 5.0 | 17.0 | 0.00 | 0.00 | 0.00 | 50 | 998.1 |
| 20260504234954 | 75 | 214 | 6.0 | 17.0 | 0.00 | 0.00 | 0.00 | 50 | 998.1 |
| 20260504234522 | 75 | 213 | 6.0 | 17.0 | 0.00 | 0.00 | 0.00 | 50 | 998.2 |
| 20260504234454 | 75 | 213 | 6.0 | 16.0 | 0.00 | 0.00 | 0.00 | 50 | 998.2 |
| 20260504234001 | 76 | 214 | 6.0 | 15.0 | 0.00 | 0.00 | 0.00 | 50 | 998.3 |
| 20260504233954 | 76 | 216 | 5.0 | 13.0 | 0.00 | 0.00 | 0.00 | 50 | 998.3 |
| 20260504233523 | 76 | 225 | 4.0 | 10.0 | 0.00 | 0.00 | 0.00 | 51 | 998.2 |
| 20260504233454 | 76 | 223 | 4.0 | 10.0 | 0.00 | 0.00 | 0.00 | 51 | 998.2 |
| 20260504233022 | 76 | 222 | 4.0 | 8.0 | 0.00 | 0.00 | 0.00 | 51 | 998.1 |
| 20260504232954 | 76 | 218 | 4.0 | 8.0 | 0.00 | 0.00 | 0.00 | 50 | 998.1 |
| 20260504232503 | 76 | 209 | 5.0 | 9.0 | 0.00 | 0.00 | 0.00 | 50 | 998.1 |
| 20260504232454 | 76 | 207 | 4.0 | 10.0 | 0.00 | 0.00 | 0.00 | 49 | 998.2 |
| 20260504232001 | 76 | 214 | 5.0 | 13.0 | 0.00 | 0.00 | 0.00 | 49 | 998.2 |
| 20260504231954 | 76 | 213 | 6.0 | 13.0 | 0.00 | 0.00 | 0.00 | 49 | 998.2 |
| 20260504231501 | 76 | 212 | 6.0 | 20.0 | 0.00 | 0.00 | 0.00 | 49 | 998.2 |
| 20260504231453 | 76 | 214 | 7.0 | 20.0 | 0.00 | 0.00 | 0.00 | 48 | 998.1 |
| 20260504231022 | 76 | 211 | 7.0 | 20.0 | 0.00 | 0.00 | 0.00 | 48 | 998.2 |
| 20260504230953 | 76 | 212 | 6.0 | 20.0 | 0.00 | 0.00 | 0.00 | 48 | 998.2 |
| 20260504230501 | 77 | 224 | 6.0 | 14.0 | 0.00 | 0.00 | 0.00 | 48 | 998.2 |
| 20260504230453 | 77 | 227 | 6.0 | 14.0 | 0.00 | 0.00 | 0.00 | 47 | 998.1 |
| 20260504230001 | 77 | 232 | 6.0 | 14.0 | 0.00 | 0.00 | 0.00 | 47 | 998.1 |
| 20260504225953 | 77 | 232 | 5.0 | 14.0 | 0.00 | 0.00 | 0.00 | 47 | 998.1 |
| 20260504225522 | 77 | 229 | 5.0 | 17.0 | 0.00 | 0.00 | 0.00 | 47 | 998.2 |
| 20260504225453 | 77 | 228 | 5.0 | 17.0 | 0.00 | 0.00 | 0.00 | 48 | 998.2 |
| 20260504225002 | 77 | 229 | 5.0 | 17.0 | 0.00 | 0.00 | 0.00 | 48 | 998.3 |
| 20260504224953 | 77 | 229 | 5.0 | 17.0 | 0.00 | 0.00 | 0.00 | 48 | 998.3 |
| 20260504224501 | 77 | 225 | 5.0 | 19.0 | 0.00 | 0.00 | 0.00 | 47 | 998.3 |
| 20260504224453 | 77 | 229 | 6.0 | 19.0 | 0.00 | 0.00 | 0.00 | 47 | 998.3 |
| 20260504224001 | 77 | 231 | 7.0 | 21.0 | 0.00 | 0.00 | 0.00 | 46 | 998.5 |
| 20260504223953 | 77 | 232 | 7.0 | 21.0 | 0.00 | 0.00 | 0.00 | 46 | 998.5 |
| 20260504223501 | 77 | 231 | 7.0 | 21.0 | 0.00 | 0.00 | 0.00 | 46 | 998.5 |
| 20260504223453 | 77 | 227 | 7.0 | 21.0 | 0.00 | 0.00 | 0.00 | 45 | 998.5 |
| 20260504223002 | 77 | 222 | 7.0 | 16.0 | 0.00 | 0.00 | 0.00 | 46 | 998.7 |
| 20260504222953 | 77 | 219 | 7.0 | 17.0 | 0.00 | 0.00 | 0.00 | 45 | 998.7 |
| 20260504222501 | 77 | 215 | 7.0 | 18.0 | 0.00 | 0.00 | 0.00 | 45 | 998.8 |
| 20260504222453 | 77 | 215 | 7.0 | 18.0 | 0.00 | 0.00 | 0.00 | 45 | 998.8 |
| 20260504222001 | 77 | 208 | 6.0 | 18.0 | 0.00 | 0.00 | 0.00 | 45 | 998.9 |
| 20260504221953 | 77 | 207 | 5.0 | 18.0 | 0.00 | 0.00 | 0.00 | 45 | 998.8 |
| 20260504221501 | 76 | 202 | 5.0 | 13.0 | 0.00 | 0.00 | 0.00 | 47 | 998.9 |
| 20260504221453 | 76 | 200 | 5.0 | 11.0 | 0.00 | 0.00 | 0.00 | 46 | 998.9 |
| 20260504221002 | 76 | 196 | 5.0 | 11.0 | 0.00 | 0.00 | 0.00 | 45 | 999.0 |
| 20260504220952 | 76 | 194 | 5.0 | 11.0 | 0.00 | 0.00 | 0.00 | 45 | 999.0 |
| 20260504220501 | 76 | 189 | 5.0 | 11.0 | 0.00 | 0.00 | 0.00 | 45 | 999.0 |
| 20260504220452 | 76 | 190 | 5.0 | 12.0 | 0.00 | 0.00 | 0.00 | 45 | 999.0 |
| 20260504220001 | 77 | 194 | 5.0 | 16.0 | 0.00 | 0.00 | 0.00 | 45 | 999.1 |
| 20260504215952 | 77 | 196 | 5.0 | 16.0 | 0.00 | 0.00 | 0.00 | 44 | 999.0 |
| 20260504215522 | 77 | 209 | 6.0 | 16.0 | 0.00 | 0.00 | 0.00 | 44 | 999.0 |
| 20260504215452 | 77 | 208 | 6.0 | 16.0 | 0.00 | 0.00 | 0.00 | 44 | 998.9 |
| 20260504215001 | 77 | 210 | 7.0 | 16.0 | 0.00 | 0.00 | 0.00 | 43 | 999.0 |
| 20260504214952 | 77 | 209 | 7.0 | 16.0 | 0.00 | 0.00 | 0.00 | 43 | 999.1 |
| 20260504214501 | 76 | 204 | 6.0 | 16.0 | 0.00 | 0.00 | 0.00 | 42 | 999.2 |
| 20260504214452 | 77 | 207 | 6.0 | 16.0 | 0.00 | 0.00 | 0.00 | 42 | 999.2 |
| 20260504214001 | 77 | 211 | 6.0 | 20.0 | 0.00 | 0.00 | 0.00 | 43 | 999.5 |
| 20260504213952 | 77 | 217 | 7.0 | 20.0 | 0.00 | 0.00 | 0.00 | 42 | 999.3 |
| 20260504213501 | 77 | 223 | 8.0 | 20.0 | 0.00 | 0.00 | 0.00 | 40 | 999.5 |
| 20260504213452 | 77 | 223 | 7.0 | 20.0 | 0.00 | 0.00 | 0.00 | 40 | 999.5 |
| 20260504213002 | 77 | 221 | 6.0 | 18.0 | 0.00 | 0.00 | 0.00 | 40 | 999.6 |
| 20260504212952 | 77 | 215 | 6.0 | 12.0 | 0.00 | 0.00 | 0.00 | 41 | 999.6 |
| 20260504212501 | 76 | 211 | 7.0 | 21.0 | 0.00 | 0.00 | 0.00 | 42 | 999.5 |
| 20260504212452 | 76 | 211 | 7.0 | 21.0 | 0.00 | 0.00 | 0.00 | 41 | 999.5 |
| 20260504212001 | 76 | 214 | 8.0 | 21.0 | 0.00 | 0.00 | 0.00 | 41 | 999.6 |
| 20260504211952 | 76 | 213 | 7.0 | 21.0 | 0.00 | 0.00 | 0.00 | 40 | 999.6 |
| 20260504211502 | 76 | 210 | 6.0 | 14.0 | 0.00 | 0.00 | 0.00 | 40 | 999.7 |
| 20260504211452 | 76 | 207 | 6.0 | 14.0 | 0.00 | 0.00 | 0.00 | 40 | 999.7 |
| 20260504211001 | 76 | 207 | 7.0 | 15.0 | 0.00 | 0.00 | 0.00 | 40 | 999.6 |
| 20260504210952 | 76 | 209 | 8.0 | 15.0 | 0.00 | 0.00 | 0.00 | 40 | 999.6 |
| 20260504210522 | 76 | 203 | 9.0 | 17.0 | 0.00 | 0.00 | 0.00 | 39 | 999.7 |
| 20260504210452 | 76 | 205 | 9.0 | 17.0 | 0.00 | 0.00 | 0.00 | 38 | 999.7 |
| 20260504210001 | 77 | 205 | 8.0 | 17.0 | 0.00 | 0.00 | 0.00 | 38 | 999.7 |
| 20260504205952 | 77 | 209 | 8.0 | 18.0 | 0.00 | 0.00 | 0.00 | 37 | 999.6 |
| 20260504205501 | 77 | 220 | 8.0 | 18.0 | 0.00 | 0.00 | 0.00 | 37 | 999.7 |
| 20260504205451 | 77 | 220 | 7.0 | 18.0 | 0.00 | 0.00 | 0.00 | 38 | 999.8 |
| 20260504205001 | 77 | 218 | 8.0 | 18.0 | 0.00 | 0.00 | 0.00 | 37 | 999.7 |
| 20260504204951 | 77 | 210 | 8.0 | 17.0 | 0.00 | 0.00 | 0.00 | 37 | 999.9 |
| 20260504204502 | 77 | 198 | 7.0 | 13.0 | 0.00 | 0.00 | 0.00 | 39 | 999.8 |
| 20260504204451 | 77 | 196 | 7.0 | 13.0 | 0.00 | 0.00 | 0.00 | 39 | 999.8 |
| 20260504204001 | 78 | 190 | 6.0 | 13.0 | 0.00 | 0.00 | 0.00 | 38 | 999.8 |
| 20260504203951 | 78 | 189 | 6.0 | 13.0 | 0.00 | 0.00 | 0.00 | 38 | 999.8 |
| 20260504203501 | 78 | 192 | 5.0 | 13.0 | 0.00 | 0.00 | 0.00 | 38 | 999.8 |
| 20260504203451 | 78 | 195 | 5.0 | 13.0 | 0.00 | 0.00 | 0.00 | 39 | 999.7 |
| 20260504203001 | 78 | 203 | 6.0 | 16.0 | 0.00 | 0.00 | 0.00 | 38 | 999.8 |
| 20260504202951 | 78 | 205 | 7.0 | 16.0 | 0.00 | 0.00 | 0.00 | 38 | 999.8 |
| 20260504202501 | 78 | 209 | 7.0 | 17.0 | 0.00 | 0.00 | 0.00 | 38 | 999.9 |
| 20260504202451 | 78 | 210 | 7.0 | 17.0 | 0.00 | 0.00 | 0.00 | 39 | 999.8 |
| 20260504202002 | 78 | 207 | 6.0 | 17.0 | 0.00 | 0.00 | 0.00 | 38 | 999.9 |
| 20260504201951 | 78 | 209 | 7.0 | 17.0 | 0.00 | 0.00 | 0.00 | 37 | 999.7 |
| 20260504201523 | 78 | 215 | 7.0 | 18.0 | 0.00 | 0.00 | 0.00 | 37 | 999.7 |
| 20260504201451 | 78 | 218 | 7.0 | 18.0 | 0.00 | 0.00 | 0.00 | 37 | 999.8 |
| 20260504201001 | 78 | 220 | 8.0 | 18.0 | 0.00 | 0.00 | 0.00 | 35 | 999.9 |
| 20260504200951 | 78 | 220 | 8.0 | 18.0 | 0.00 | 0.00 | 0.00 | 34 | 999.9 |
| 20260504200502 | 78 | 228 | 9.0 | 20.0 | 0.00 | 0.00 | 0.00 | 34 | 1000.0 |
| 20260504200451 | 78 | 225 | 9.0 | 20.0 | 0.00 | 0.00 | 0.00 | 34 | 1000.0 |
| 20260504200002 | 78 | 228 | 9.0 | 20.0 | 0.00 | 0.00 | 0.00 | 33 | 1000.0 |
| 20260504195951 | 78 | 227 | 8.0 | 20.0 | 0.00 | 0.00 | 0.00 | 34 | 1000.0 |
| 20260504195523 | 78 | 213 | 8.0 | 20.0 | 0.00 | 0.00 | 0.00 | 33 | 999.9 |
| 20260504195451 | 78 | 214 | 8.0 | 20.0 | 0.00 | 0.00 | 0.00 | 34 | 999.9 |
| 20260504195001 | 78 | 211 | 9.0 | 20.0 | 0.00 | 0.00 | 0.00 | 34 | 1000.1 |
| 20260504194950 | 78 | 214 | 9.0 | 20.0 | 0.00 | 0.00 | 0.00 | 34 | 1000.1 |
| 20260504194502 | 78 | 215 | 9.0 | 20.0 | 0.00 | 0.00 | 0.00 | 33 | 1000.0 |
| 20260504194450 | 78 | 213 | 9.0 | 20.0 | 0.00 | 0.00 | 0.00 | 32 | 1000.1 |
| 20260504194001 | 78 | 214 | 9.0 | 20.0 | 0.00 | 0.00 | 0.00 | 34 | 999.9 |
| 20260504193950 | 78 | 214 | 9.0 | 20.0 | 0.00 | 0.00 | 0.00 | 34 | 1000.1 |
| 20260504193501 | 79 | 217 | 8.0 | 17.0 | 0.00 | 0.00 | 0.00 | 33 | 1000.1 |
| 20260504193450 | 79 | 218 | 7.0 | 17.0 | 0.00 | 0.00 | 0.00 | 32 | 1000.2 |
| 20260504193023 | 79 | 215 | 7.0 | 16.0 | 0.00 | 0.00 | 0.00 | 33 | 1000.3 |
| 20260504192950 | 79 | 212 | 7.0 | 16.0 | 0.00 | 0.00 | 0.00 | 33 | 1000.3 |
| 20260504192501 | 79 | 226 | 9.0 | 23.0 | 0.00 | 0.00 | 0.00 | 32 | 1000.3 |
| 20260504192450 | 79 | 229 | 10.0 | 23.0 | 0.00 | 0.00 | 0.00 | 31 | 1000.4 |
| 20260504192001 | 79 | 236 | 9.0 | 23.0 | 0.00 | 0.00 | 0.00 | 31 | 1000.3 |
| 20260504191950 | 79 | 238 | 8.0 | 23.0 | 0.00 | 0.00 | 0.00 | 31 | 1000.5 |
| 20260504191502 | 79 | 231 | 7.0 | 18.0 | 0.00 | 0.00 | 0.00 | 32 | 1000.5 |
| 20260504191450 | 79 | 226 | 6.0 | 18.0 | 0.00 | 0.00 | 0.00 | 33 | 1000.5 |
| 20260504191003 | 78 | 220 | 7.0 | 17.0 | 0.00 | 0.00 | 0.00 | 35 | 1000.5 |
| 20260504190950 | 78 | 222 | 8.0 | 17.0 | 0.00 | 0.00 | 0.00 | 34 | 1000.5 |
| 20260504190501 | 78 | 221 | 8.0 | 18.0 | 0.00 | 0.00 | 0.00 | 32 | 1000.5 |
| 20260504190450 | 78 | 223 | 8.0 | 18.0 | 0.00 | 0.00 | 0.00 | 33 | 1000.6 |
| 20260504190002 | 78 | 221 | 8.0 | 19.0 | 0.00 | 0.00 | 0.00 | 34 | 1000.6 |
| 20260504185950 | 78 | 219 | 8.0 | 19.0 | 0.00 | 0.00 | 0.00 | 34 | 1000.8 |
| 20260504185523 | 78 | 211 | 9.0 | 20.0 | 0.00 | 0.00 | 0.00 | 34 | 1000.8 |
| 20260504185450 | 77 | 207 | 9.0 | 21.0 | 0.00 | 0.00 | 0.00 | 33 | 1000.9 |
| 20260504185022 | 77 | 207 | 10.0 | 21.0 | 0.00 | 0.00 | 0.00 | 33 | 1000.9 |
| 20260504184950 | 78 | 206 | 9.0 | 21.0 | 0.00 | 0.00 | 0.00 | 33 | 1000.8 |
| 20260504184501 | 78 | 212 | 8.0 | 20.0 | 0.00 | 0.00 | 0.00 | 35 | 1000.7 |
| 20260504184450 | 78 | 215 | 8.0 | 20.0 | 0.00 | 0.00 | 0.00 | 35 | 1000.7 |
| 20260504184001 | 79 | 224 | 7.0 | 20.0 | 0.00 | 0.00 | 0.00 | 37 | 1000.8 |
| 20260504183950 | 78 | 232 | 7.0 | 20.0 | 0.00 | 0.00 | 0.00 | 36 | 1000.8 |
| 20260504183502 | 78 | 229 | 7.0 | 17.0 | 0.00 | 0.00 | 0.00 | 35 | 1001.0 |
| 20260504183449 | 78 | 227 | 6.0 | 17.0 | 0.00 | 0.00 | 0.00 | 33 | 1001.0 |
| 20260504183001 | 78 | 223 | 7.0 | 17.0 | 0.00 | 0.00 | 0.00 | 36 | 1001.0 |
| 20260504182949 | 78 | 219 | 7.0 | 17.0 | 0.00 | 0.00 | 0.00 | 35 | 1001.0 |
| 20260504182501 | 77 | 211 | 7.0 | 17.0 | 0.00 | 0.00 | 0.00 | 40 | 1001.0 |
| 20260504182449 | 77 | 204 | 6.0 | 17.0 | 0.00 | 0.00 | 0.00 | 41 | 1001.0 |
| 20260504182002 | 76 | 189 | 6.0 | 14.0 | 0.00 | 0.00 | 0.00 | 44 | 1001.1 |
| 20260504181949 | 76 | 185 | 5.0 | 14.0 | 0.00 | 0.00 | 0.00 | 44 | 1001.2 |
| 20260504181503 | 76 | 174 | 6.0 | 14.0 | 0.00 | 0.00 | 0.00 | 45 | 1001.0 |
| 20260504181449 | 76 | 177 | 6.0 | 14.0 | 0.00 | 0.00 | 0.00 | 45 | 1001.1 |
| 20260504181001 | 76 | 173 | 6.0 | 14.0 | 0.00 | 0.00 | 0.00 | 45 | 1001.2 |
| 20260504180949 | 76 | 172 | 6.0 | 14.0 | 0.00 | 0.00 | 0.00 | 44 | 1001.2 |
| 20260504180501 | 76 | 173 | 6.0 | 12.0 | 0.00 | 0.00 | 0.00 | 45 | 1001.2 |
| 20260504180449 | 76 | 173 | 5.0 | 12.0 | 0.00 | 0.00 | 0.00 | 45 | 1001.3 |
| 20260504180001 | 76 | 170 | 5.0 | 11.0 | 0.00 | 0.00 | 0.00 | 46 | 1001.4 |
| 20260504175949 | 76 | 172 | 6.0 | 15.0 | 0.00 | 0.00 | 0.00 | 46 | 1001.4 |
| 20260504175502 | 76 | 181 | 6.0 | 15.0 | 0.00 | 0.00 | 0.00 | 45 | 1001.5 |
| 20260504175449 | 76 | 184 | 6.0 | 15.0 | 0.00 | 0.00 | 0.00 | 45 | 1001.5 |
| 20260504175022 | 75 | 186 | 6.0 | 15.0 | 0.00 | 0.00 | 0.00 | 46 | 1001.6 |
| 20260504174949 | 75 | 186 | 6.0 | 16.0 | 0.00 | 0.00 | 0.00 | 44 | 1001.6 |
| 20260504174502 | 75 | 196 | 6.0 | 18.0 | 0.00 | 0.00 | 0.00 | 47 | 1001.7 |
| 20260504174449 | 75 | 198 | 7.0 | 18.0 | 0.00 | 0.00 | 0.00 | 47 | 1001.6 |
| 20260504174002 | 75 | 200 | 8.0 | 18.0 | 0.00 | 0.00 | 0.00 | 46 | 1001.8 |
| 20260504173949 | 75 | 202 | 7.0 | 18.0 | 0.00 | 0.00 | 0.00 | 45 | 1001.8 |
| 20260504173502 | 75 | 206 | 7.0 | 18.0 | 0.00 | 0.00 | 0.00 | 43 | 1001.8 |
| 20260504173449 | 76 | 204 | 6.0 | 17.0 | 0.00 | 0.00 | 0.00 | 41 | 1001.8 |
| 20260504173001 | 75 | 213 | 6.0 | 12.0 | 0.00 | 0.00 | 0.00 | 45 | 1001.9 |
| 20260504172949 | 75 | 212 | 6.0 | 12.0 | 0.00 | 0.00 | 0.00 | 44 | 1001.9 |
| 20260504172502 | 75 | 204 | 6.0 | 12.0 | 0.00 | 0.00 | 0.00 | 44 | 1002.0 |
| 20260504172448 | 75 | 206 | 6.0 | 12.0 | 0.00 | 0.00 | 0.00 | 44 | 1002.0 |
| 20260504172023 | 75 | 202 | 5.0 | 21.0 | 0.00 | 0.00 | 0.00 | 45 | 1002.1 |
| 20260504171948 | 75 | 202 | 6.0 | 21.0 | 0.00 | 0.00 | 0.00 | 46 | 1002.1 |
| 20260504171522 | 74 | 201 | 6.0 | 21.0 | 0.00 | 0.00 | 0.00 | 46 | 1002.1 |
| 20260504171448 | 74 | 202 | 7.0 | 21.0 | 0.00 | 0.00 | 0.00 | 45 | 1002.1 |